STARLINK-33960, 63966

Orbit data source: Space-Track

STARLINK-33960, 63966 is a payload satellite owned by SpaceX/Seattle (US) in LEO that was launched on Tue, 13 May 2025 UTC via an FALCON 9 launch vehicle from the Air Force Eastern Test Range (AFETR). Payload-class satellites include a variety of spacecraft equipped with specific instruments for various scientific and technological missions. These include communications satellites like Starlink; space stations such as the ISS; scientific satellites like the Hubble; Earth observation satellites from companies like Planet Labs, Umbra, and HawkEye 360; GPS; miniature CubeSats for education and research; and military/defense satellites.

Loading next visibility...
Identifier
63966, 2025-099Q
Orbit
LEO
Country
Flag of USUS
Related business
Manufacturer
SpaceX/Seattle
Mission
Operational Commercial Communications
Bus & Motor
STARLINK V2MO, Unknown motor
Mass
575 kg wet, ~530 kg dry
Launch date (UTC)
2025-05-13 (7 months ago)
Launch vehicle
FALCON 9
Launch site
Air Force Eastern Test Range (AFETR)
Object type
Payload
Rocket body
Debris
Shape & HBR
Box + 2 Pan, 17.7 m
Radar Cross Section
36.964 m², Large (>1 m²)

Expand to show TLE details & history
Last TLE update: 20 hours ago

TLE from 20 hours ago
0 STARLINK-33960
1 63966U 25099Q   25346.62492332  .00035743  00000-0  13029-2 0  9995
2 63966  43.0021 307.6781 0001601 268.6245  91.4424 15.27559223 34029
Epoch: 2025-12-12T14:59Z
TLE epoch observation values (Epoch: 2025-12-12T14:59:53.374Z)
Latitude
0.00002°
Longitude
1.14186°
Altitude
482.915 km
Speed
7.626 km/s
True Right ascension
20h 30m 42s
True Declination
0° 00' 00"
Sunlit
Object was in daylight at epoch
Visualization orbit readout
Latitude
Unknown
Longitude
Unknown
Altitude
Unknown
Speed
Unknown
Apparent Right ascension
Unknown
Apparent Declination
Unknown
Sunlit
N/A
Visualization observer readout
Local Sidereal Time
09:36:08
Azimuth
Unknown
Elevation
Unknown
Doppler factor
Unknown
Orbital elements
Apogee altitude
486.155 km
Perigee altitude
483.957 km
Semi-major axis
6,863.193 km
Eccentricity
0.00016
Inclination
43.0021°
RAAN
307.6781°
Arg. of periapsis
268.6245°
True anomaly
91.46074°
Mean anomaly
91.4424°
Eccentric anomaly
91.45157°
Mean motion
3.81728 °/min
Orbital period
94.31 mins
BSTAR
0.0013029
Loading maneuver chart data...
Computing Atmospheric mass density...
Loading historical data...
Loading historical data...
Loading historical data...
Loading historical data...
Loading historical data...
Loading historical data...
Loading historical data...

Documentation

Showing up to 5 results
|